Volver al catálogo

STARLINK-3761

ActivoComunicacionesVLEO
NORAD 52262·PAYLOAD·🇺🇸 United States

Lanzado Apr 21, 2022 desde Cape Canaveral Space Force Station

Loading…

Próximos Pases (próximas 24 horas)

TLE

ActualizadoSource: CelesTrak SupGP

Época: Sep 15, 2026, 01:57 UTC

1 52262C 22041B   26258.08173611  .00039480  00000+0  11666-2 0  2589
2 52262  53.1587 332.7023 0001167  92.9308 169.3412 15.34367905    14

Sigue STARLINK-3761 en tiempo real con AllMySat

Download on the App Store